Regional Weather Roundup
Issued by NWS

Home | Current Version | Previous Version | Text Only | Print | Product List | Glossary Off
Versions: 1 2 3 4 5 6 7 8 9 10 11 12 13 14 15 16 17 18 19 20 21 22 23 24 25 26 27 28

000
ASUS45 KBOI 010610
RWRID

IDAHO REGIONAL WEATHER ROUNDUP
NATIONAL WEATHER SERVICE BOISE ID
1200 AM MDT SUN MAY 01 2016

NOTE: "FAIR" INDICATES FEW OR NO CLOUDS BELOW 12000 FEET
WITH NO SIGNIFICANT WEATHER AND/OR OBSTRUCTIONS TO VISIBILITY

IDZ012-014-010700-
SOUTHWEST IDAHO


CITY           SKY/WX    TMP DP  RH WIND       PRES   REMARKS
BOISE          PTCLDY    49  36  61 S3        30.09R
CALDWELL       PTCLDY    49  37  63 W12       30.09S
MOUNTAIN HOME  CLOUDY    51  39  63 NW10      30.08S
$$

IDZ016-017-010700-
SOUTHCENTRAL IDAHO


CITY           SKY/WX    TMP DP  RH WIND       PRES   REMARKS
BURLEY         CLOUDY    48  44  86 CALM      30.09S
JEROME         MOCLDY    48  42  80 E3        30.11R
TWIN FALLS     LGT RAIN  48  41  76 E3        30.13R
$$

IDZ019>023-010700-
SOUTHEAST IDAHO


CITY           SKY/WX    TMP DP  RH WIND       PRES   REMARKS
IDAHO FALLS    CLOUDY    45  36  70 W6        30.13R
POCATELLO      CLOUDY    46  40  79 NE7       30.11S
REXBURG        CLOUDY    43  28  55 E6        30.15R
$$

IDZ006-010-011-018-031-032-010700-
CENTRAL IDAHO MOUNTAINS


CITY           SKY/WX    TMP DP  RH WIND       PRES   REMARKS
MCCALL         CLEAR     45  32  60 NE5       30.15S
HAILEY         MOCLDY    41  37  87 NW8       30.14S
STANLEY          N/A     36  27  69 CALM      30.19R
SALMON         CLOUDY    45  39  81 W3        30.22S
CHALLIS        CLOUDY    46  29  51 VRB6      30.19R
$$

IDZ002-004-006-007-026-010700-
NORTHERN IDAHO


CITY           SKY/WX    TMP DP  RH WIND       PRES   REMARKS
LEWISTON       CLEAR     51  44  77 S6        30.22F
LOWELL           N/A     49  46  90 CALM      30.25R
COEUR D`ALENE  CLEAR     45  43  93 CALM      30.24S
MULLAN PASS    CLEAR     38  30  73 VRB3      30.29S
$$




USA.gov is the U.S. government's official web portal to all federal, state and local government web resources and services.